Terug naar catalogus

STARLINK-2663

ActiefCommunicatieVLEO
NORAD 48443·PAYLOAD·🇺🇸 United States

Gelanceerd May 9, 2021 vanaf Cape Canaveral Space Force Station

Loading…

Volgende Passages (komende 24 uur)

TLE

VersSource: CelesTrak SupGP

Epoch: Sep 14, 2026, 21:16 UTC

1 48443C 21040R   26257.88659722 -.00000920  00000+0 -29570-4 0  2575
2 48443  53.1588  17.6130 0001212  81.2700 188.6388 15.31712629    17

Volg STARLINK-2663 in realtime met AllMySat

Download on the App Store